sat.trackr.live / text

‹ back to catalog

STARLINK-32162

NORAD 60597 · 2024-150Q

PAYLOAD ACTIVE UNKNOWN

§ Identity

Operator
Country
US
Launch date
2024-08-20
Launch site
AFETR
Launch vehicle
Mass (kg)
RCS (m²)

Purposes: comms

External: N2YO · Heavens-Above · Gunter

§ Orbital elements

Epoch: 2026-09-21T20:39:24.199200Z

Period
93.85 min
Inclination
53.1614°
Eccentricity
0.0001442
Mean motion
15.34402431 rev/d
Perigee alt
461.7 km
Apogee alt
463.7 km
Semi-major
6,840.8 km
B*
-7.3912e-6
RAAN
115.2983°
Arg perigee
88.6455°
Mean anomaly
271.4712°
Rev number
11,808

§ Raw data

STARLINK-321621 60597U 24150Q   26264.86069675 -.00000626  00000+0 -73912-5 0  99982 60597  53.1614 115.2983 0001442  88.6455 271.4712 15.34402431118084

JSON: /api/v1/satellites/60597 · /tle

For live sub-satellite position, see the globe view (requires WebGL).

§ Visibility from observer

Set your observer location to see the next 7 days of passes ≥ 10°. The values pass through the URL so the page stays shareable.

No JS? Fill the form by hand. The geolocation button needs JavaScript.